Weather reports worldwide

Advertisment
Riga, Latvia (26422): temperature & dewpoint: 17.03.2017 16:00:00 - 23.03.2017 16:00:00 (EET)Riga, Latvia (26422): wind speed: 17.03.2017 16:00:00 - 23.03.2017 16:00:00 (EET)Riga, Latvia (26422): wind direction: 17.03.2017 16:00:00 - 23.03.2017 16:00:00 (EET)Riga, Latvia (26422): reduced air pressure: 17.03.2017 16:00:00 - 23.03.2017 16:00:00 (EET)Riga, Latvia (26422): visibility: 17.03.2017 16:00:00 - 23.03.2017 16:00:00 (EET)
Date & Time tt [°C] td [°C] ff [km/h] ff [kn] dd ppp [hPa] vv [km]
23.03.2017 16:00:00 - - - - - - -
23.03.2017 15:00:00 - - - - - - -
23.03.2017 14:00:00 10,8 -4,5 14 8 W 1023,5 20
23.03.2017 13:00:00 - - - - - - -
23.03.2017 12:00:00 - - - - - - -
23.03.2017 11:00:00 7,8 -0,3 14 8 WSW 1023,7 20
23.03.2017 10:00:00 - - - - - - -
23.03.2017 09:00:00 - - - - - - -
23.03.2017 08:00:00 2,4 0,5 11 6 SW 1022,3 10
23.03.2017 07:00:00 - - - - - - -
23.03.2017 06:00:00 - - - - - - -
23.03.2017 05:00:00 1,2 0,0 11 6 S 1020,4 10
23.03.2017 04:00:00 - - - - - - -
23.03.2017 03:00:00 - - - - - - -
23.03.2017 02:00:00 2,1 0,4 11 6 SSW 1019,4 10
23.03.2017 01:00:00 - - - - - - -
23.03.2017 00:00:00 - - - - - - -
22.03.2017 23:00:00 3,5 0,3 14 8 SSW 1017,9 10
22.03.2017 22:00:00 - - - - - - -
22.03.2017 21:00:00 - - - - - - -
22.03.2017 20:00:00 6,1 -0,5 11 6 SW 1016,8 10
22.03.2017 19:00:00 - - - - - - -
22.03.2017 18:00:00 - - - - - - -
22.03.2017 17:00:00 8,3 -1,9 22 12 W 1014,2 20
22.03.2017 16:00:00 - - - - - - -
22.03.2017 15:00:00 - - - - - - -
22.03.2017 14:00:00 8,9 -1,9 22 12 WSW 1012,4 20
22.03.2017 13:00:00 - - - - - - -
22.03.2017 12:00:00 - - - - - - -
22.03.2017 11:00:00 7,0 -0,8 22 12 WSW 1011,3 20
22.03.2017 10:00:00 - - - - - - -
22.03.2017 09:00:00 - - - - - - -
22.03.2017 08:00:00 4,1 1,4 14 8 S 1010,0 10
22.03.2017 07:00:00 - - - - - - -
22.03.2017 06:00:00 - - - - - - -
22.03.2017 05:00:00 5,2 1,2 11 6 SW 1008,5 10
22.03.2017 04:00:00 - - - - - - -
22.03.2017 03:00:00 - - - - - - -
22.03.2017 02:00:00 4,7 0,4 14 8 S 1007,2 10
22.03.2017 01:00:00 - - - - - - -
22.03.2017 00:00:00 - - - - - - -
21.03.2017 23:00:00 5,2 0,9 14 8 S 1006,6 10
21.03.2017 22:00:00 - - - - - - -
21.03.2017 21:00:00 - - - - - - -
21.03.2017 20:00:00 6,4 1,1 14 8 SSW 1005,0 10
21.03.2017 19:00:00 - - - - - - -
21.03.2017 18:00:00 - - - - - - -
21.03.2017 17:00:00 9,1 1,0 18 10 WSW 1002,6 20
21.03.2017 16:00:00 - - - - - - -
21.03.2017 15:00:00 - - - - - - -
21.03.2017 14:00:00 9,3 5,6 18 10 SW 1000,1 10
21.03.2017 13:00:00 - - - - - - -
21.03.2017 12:00:00 - - - - - - -
21.03.2017 11:00:00 5,1 4,6 18 10 SSE 997,6 4,0
21.03.2017 10:00:00 - - - - - - -
21.03.2017 09:00:00 - - - - - - -
21.03.2017 08:00:00 3,7 3,1 18 10 SE 999,0 4,0
21.03.2017 07:00:00 - - - - - - -
21.03.2017 06:00:00 - - - - - - -
21.03.2017 05:00:00 3,4 1,8 11 6 SE 1001,3 10
21.03.2017 04:00:00 - - - - - - -
21.03.2017 03:00:00 - - - - - - -
21.03.2017 02:00:00 3,7 2,5 11 6 SE 1003,2 4,0
21.03.2017 01:00:00 - - - - - - -
21.03.2017 00:00:00 - - - - - - -
20.03.2017 23:00:00 3,7 3,1 7 4 SSE 1004,1 4,0
20.03.2017 22:00:00 - - - - - - -
20.03.2017 21:00:00 - - - - - - -
20.03.2017 20:00:00 4,2 2,6 11 6 SSE 1004,8 10
20.03.2017 19:00:00 - - - - - - -
20.03.2017 18:00:00 - - - - - - -
20.03.2017 17:00:00 5,1 2,9 11 6 SE 1004,7 10
20.03.2017 16:00:00 - - - - - - -
20.03.2017 15:00:00 - - - - - - -
20.03.2017 14:00:00 - - - - - - 10
20.03.2017 13:00:00 - - - - - - -
20.03.2017 12:00:00 - - - - - - -
20.03.2017 11:00:00 4,2 2,9 7 4 SE 1004,9 10
20.03.2017 10:00:00 - - - - - - -
20.03.2017 09:00:00 - - - - - - -
20.03.2017 08:00:00 1,3 0,2 7 4 SE 1004,5 10
20.03.2017 07:00:00 - - - - - - -
20.03.2017 06:00:00 - - - - - - -
20.03.2017 05:00:00 0,7 -0,1 4 2 E 1004,2 10
20.03.2017 04:00:00 - - - - - - -
20.03.2017 03:00:00 - - - - - - -
20.03.2017 02:00:00 0,0 -0,1 4 2 ENE 1004,8 4,0
20.03.2017 01:00:00 - - - - - - -
20.03.2017 00:00:00 - - - - - - -
19.03.2017 23:00:00 -0,4 -0,5 4 2 NW 1005,2 0,5
19.03.2017 22:00:00 - - - - - - -
19.03.2017 21:00:00 - - - - - - -
19.03.2017 20:00:00 -0,4 -0,6 7 4 NNW 1005,4 0,2
19.03.2017 19:00:00 - - - - - - -
19.03.2017 18:00:00 - - - - - - -
19.03.2017 17:00:00 3,4 0,9 18 10 NW 1004,8 10
19.03.2017 16:00:00 - - - - - - -
19.03.2017 15:00:00 - - - - - - -
19.03.2017 14:00:00 6,7 1,5 11 6 NNW 1003,1 10
19.03.2017 13:00:00 - - - - - - -
19.03.2017 12:00:00 - - - - - - -
19.03.2017 11:00:00 6,7 1,3 7 4 W 1001,5 10
19.03.2017 10:00:00 - - - - - - -
19.03.2017 09:00:00 - - - - - - -
19.03.2017 08:00:00 2,2 0,0 7 4 NE 999,5 10
19.03.2017 07:00:00 - - - - - - -
19.03.2017 06:00:00 - - - - - - -
19.03.2017 05:00:00 2,0 -0,5 7 4 ENE 996,6 10
19.03.2017 04:00:00 - - - - - - -
19.03.2017 03:00:00 - - - - - - -
19.03.2017 02:00:00 2,5 -0,3 11 6 E 994,7 10
19.03.2017 01:00:00 - - - - - - -
19.03.2017 00:00:00 - - - - - - -
18.03.2017 23:00:00 3,2 -0,5 11 6 E 993,9 10
18.03.2017 22:00:00 - - - - - - -
18.03.2017 21:00:00 - - - - - - -
18.03.2017 20:00:00 4,5 -1,2 7 4 SE 993,7 10
18.03.2017 19:00:00 - - - - - - -
18.03.2017 18:00:00 - - - - - - -
18.03.2017 17:00:00 6,3 -0,7 11 6 SSE 993,5 10
18.03.2017 16:00:00 - - - - - - -
18.03.2017 15:00:00 - - - - - - -
18.03.2017 14:00:00 4,3 0,7 11 6 S 994,3 10
18.03.2017 13:00:00 - - - - - - -
18.03.2017 12:00:00 - - - - - - -
18.03.2017 11:00:00 3,6 0,9 14 8 S 995,0 10
18.03.2017 10:00:00 - - - - - - -
18.03.2017 09:00:00 - - - - - - -
18.03.2017 08:00:00 2,1 0,7 11 6 S 995,3 10
18.03.2017 07:00:00 - - - - - - -
18.03.2017 06:00:00 - - - - - - -
18.03.2017 05:00:00 1,3 0,4 11 6 S 996,0 4,0
18.03.2017 04:00:00 - - - - - - -
18.03.2017 03:00:00 - - - - - - -
18.03.2017 02:00:00 2,1 1,0 11 6 SSW 996,7 4,0
18.03.2017 01:00:00 - - - - - - -
18.03.2017 00:00:00 - - - - - - -
17.03.2017 23:00:00 3,2 2,0 11 6 S 997,9 4,0
17.03.2017 22:00:00 - - - - - - -
17.03.2017 21:00:00 - - - - - - -
17.03.2017 20:00:00 4,5 3,2 11 6 SSW 998,7 4,0
17.03.2017 19:00:00 - - - - - - -
17.03.2017 18:00:00 - - - - - - -
17.03.2017 17:00:00 5,7 4,3 18 10 SSW 998,9 4,0
17.03.2017 16:00:00 - - - - - - -

tt = temperature
td = dewpoint
ff = wind speed
dd = wind direction
ppp = reduced air pressure
vv = visibility

Next stations